CDT,Max TemperatureF,Mean TemperatureF,Min TemperatureF,Max Dew PointF,MeanDew PointF,Min DewpointF,Max Humidity, Mean Humidity, Min Humidity, Max Sea Level PressureIn, Mean Sea Level PressureIn, Min Sea Level PressureIn, Max VisibilityMiles, Mean VisibilityMiles, Min VisibilityMiles, Max Wind SpeedMPH, Mean Wind SpeedMPH, Max Gust SpeedMPH,PrecipitationIn, CloudCover, Events, WindDirDegrees
2013-9-1,80,68,57,68,62,57,100,91,61,29.85,29.81,29.74,10,6,0,17,3,29,0.00,4,Fog-Rain,293
2013-9-2,68,60,53,61,56,50,100,84,60,30.02,29.94,29.84,10,10,10,9,5,,0.00,3,,315
2013-9-3,71,60,48,54,50,46,100,80,50,30.11,30.05,30.02,10,10,10,8,2,,0.00,0,,268
2013-9-4,77,64,50,63,56,50,100,85,54,30.16,30.10,30.05,10,10,10,12,3,,0.00,3,,288
2013-9-5,68,59,50,61,51,45,94,75,46,30.31,30.24,30.16,10,10,10,17,6,17,0.00,2,,71
2013-9-6,80,63,46,64,54,45,100,81,54,30.26,30.16,30.01,10,10,10,12,2,,0.00,0,,184
2013-9-7,77,70,64,68,64,61,100,86,65,30.03,29.98,29.93,10,9,2,13,5,24,0.00,3,Rain-Thunderstorm,178
2013-9-8,69,64,60,63,61,59,100,89,73,30.09,30.04,30.00,10,10,5,14,10,23,0.00,7,,58
2013-9-9,84,74,64,73,67,61,100,83,70,30.01,29.90,29.82,10,8,3,12,6,,0.00,3,,160
2013-9-10,89,82,75,68,63,61,69,57,38,29.98,29.92,29.84,10,10,10,17,10,17,0.00,0,,218
2013-9-11,78,71,64,64,63,63,100,76,61,30.08,30.01,29.97,10,10,10,12,6,,0.00,2,,264
2013-9-12,71,62,53,63,55,43,100,82,50,30.15,30.04,29.99,10,10,1,14,5,28,0.00,3,Rain,345
2013-9-13,62,52,42,45,42,37,93,74,42,30.23,30.18,30.15,10,10,10,12,5,,0.00,1,,3
2013-9-14,66,54,41,48,43,39,100,78,43,30.19,30.12,30.03,10,10,0,8,2,,0.00,1,Fog,202
2013-9-15,57,54,51,55,49,43,100,84,63,30.24,30.08,30.02,10,8,2,13,4,23,0.03,6,Rain,145
2013-9-16,60,50,41,46,42,37,100,81,52,30.40,30.34,30.25,10,10,10,16,8,21,0.00,3,,4
2013-9-17,66,52,37,52,46,37,100,86,60,30.36,30.28,30.14,10,10,5,12,2,,0.00,2,,133
2013-9-18,75,65,55,64,57,52,100,83,69,30.13,30.04,29.93,10,9,2,22,5,,0.00,4,Rain,167
2013-9-19,78,71,64,70,65,63,100,92,74,29.94,29.88,29.78,10,7,1,25,7,46,0.11,4,Rain,173
2013-9-20,71,62,53,64,59,52,100,89,64,29.83,29.79,29.73,10,10,2,16,8,23,0.00,5,Rain,249
2013-9-21,55,48,42,52,47,41,100,86,63,29.97,29.89,29.83,10,10,10,14,9,18,0.00,2,,301
2013-9-22,60,50,39,45,40,36,100,83,45,30.10,30.04,29.98,10,10,10,7,1,,0.00,0,,40
2013-9-23,62,50,37,48,43,37,100,89,59,30.15,30.10,30.07,10,10,7,10,1,,0.00,1,,101
2013-9-24,64,52,41,54,46,41,100,88,56,30.09,30.04,29.99,10,8,1,10,1,,0.00,1,,94
2013-9-25,66,54,42,55,47,43,100,90,56,30.02,30.00,29.98,10,6,1,9,2,,0.00,1,Fog,75
2013-9-26,71,56,42,59,47,43,100,89,43,30.12,30.07,30.01,10,6,0,10,1,16,0.00,2,Fog,124
2013-9-27,75,58,42,54,48,43,100,82,44,30.19,30.13,30.10,10,7,0,16,2,,0.00,2,Fog,129
2013-9-28,78,64,51,64,55,50,100,79,44,30.10,30.01,29.87,10,9,3,18,9,26,0.08,3,Rain,163
2013-9-29,66,55,44,52,46,37,100,82,35,30.09,30.02,29.97,10,10,10,10,5,,0.00,1,,289
2013-9-30,69,55,41,50,44,41,100,78,43,30.02,29.95,29.86,10,10,5,12,2,,0.00,1,,173